TimeCDT,TemperatureF,Dew PointF,Humidity,Sea Level PressureIn,VisibilityMPH,Wind Direction,Wind SpeedMPH,Gust SpeedMPH,PrecipitationIn,Events,Conditions,WindDirDegrees,DateUTC
12:13 AM,32.2,21.2,64,30.41,10.0,NW,3.5,-,N/A,,Clear,310,2012-10-12 05:13:00
12:33 AM,31.8,21.2,65,30.41,10.0,NW,4.6,-,N/A,,Clear,320,2012-10-12 05:33:00
12:53 AM,32.0,21.4,65,30.41,10.0,NW,4.6,-,N/A,,Clear,320,2012-10-12 05:53:00
1:13 AM,32.0,22.3,67,30.41,10.0,NNW,3.5,-,N/A,,Clear,330,2012-10-12 06:13:00
1:33 AM,32.0,22.8,69,30.42,10.0,NNW,3.5,-,N/A,,Clear,330,2012-10-12 06:33:00
1:53 AM,31.8,22.6,69,30.42,10.0,NNW,3.5,-,N/A,,Clear,330,2012-10-12 06:53:00
2:13 AM,29.1,22.1,75,30.43,10.0,Calm,Calm,-,N/A,,Clear,0,2012-10-12 07:13:00
2:33 AM,27.3,21.2,78,30.43,10.0,Calm,Calm,-,N/A,,Clear,0,2012-10-12 07:33:00
2:53 AM,24.6,18.5,78,30.43,10.0,Calm,Calm,-,N/A,,Clear,0,2012-10-12 07:53:00
3:13 AM,23.9,18.1,79,30.43,10.0,Calm,Calm,-,N/A,,Clear,0,2012-10-12 08:13:00
3:33 AM,24.8,19.4,80,30.43,10.0,Calm,Calm,-,N/A,,Clear,0,2012-10-12 08:33:00
3:53 AM,25.2,19.2,78,30.43,10.0,Calm,Calm,-,N/A,,Clear,0,2012-10-12 08:53:00
4:13 AM,22.8,18.1,82,30.43,10.0,Calm,Calm,-,N/A,,Clear,0,2012-10-12 09:13:00
4:33 AM,23.4,18.5,82,30.44,10.0,Calm,Calm,-,N/A,,Clear,0,2012-10-12 09:33:00
4:53 AM,22.1,17.8,83,30.44,10.0,Calm,Calm,-,N/A,,Clear,0,2012-10-12 09:53:00
5:13 AM,22.1,18.3,85,30.44,10.0,Calm,Calm,-,N/A,,Clear,0,2012-10-12 10:13:00
5:53 AM,21.9,18.7,87,30.44,10.0,Calm,Calm,-,N/A,,Clear,0,2012-10-12 10:53:00
6:13 AM,23.0,18.7,84,30.44,10.0,Calm,Calm,-,N/A,,Clear,0,2012-10-12 11:13:00
6:33 AM,23.0,18.9,84,30.44,10.0,Calm,Calm,-,N/A,,Clear,0,2012-10-12 11:33:00
6:53 AM,22.3,18.3,85,30.44,10.0,Calm,Calm,-,N/A,,Clear,0,2012-10-12 11:53:00
7:13 AM,21.2,17.6,86,30.43,10.0,Calm,Calm,-,N/A,,Clear,0,2012-10-12 12:13:00
7:33 AM,21.7,18.5,87,30.44,10.0,Calm,Calm,-,N/A,,Clear,0,2012-10-12 12:33:00
7:53 AM,21.2,18.1,88,30.44,10.0,Calm,Calm,-,N/A,,Clear,0,2012-10-12 12:53:00
8:13 AM,22.1,18.5,86,30.43,10.0,Calm,Calm,-,N/A,,Clear,0,2012-10-12 13:13:00
8:33 AM,25.3,21.6,86,30.44,10.0,Calm,Calm,-,N/A,,Clear,0,2012-10-12 13:33:00
9:13 AM,32.0,26.1,79,30.42,10.0,Calm,Calm,-,N/A,,Clear,0,2012-10-12 14:13:00
9:33 AM,35.6,25.2,66,30.43,10.0,ESE,4.6,-,N/A,,Clear,120,2012-10-12 14:33:00
9:53 AM,37.4,25.7,63,30.43,10.0,SE,4.6,-,N/A,,Clear,130,2012-10-12 14:53:00
10:13 AM,39.2,24.4,56,30.42,10.0,SE,8.1,-,N/A,,Clear,130,2012-10-12 15:13:00
10:33 AM,40.1,23.9,52,30.41,10.0,SE,9.2,-,N/A,,Clear,130,2012-10-12 15:33:00
10:54 AM,41.9,23.2,47,30.40,10.0,SE,10.4,-,N/A,,Clear,140,2012-10-12 15:54:00
11:13 AM,42.6,21.9,44,30.40,10.0,SSE,6.9,16.1,N/A,,Clear,160,2012-10-12 16:13:00
11:33 AM,43.3,21.2,41,30.39,10.0,South,6.9,16.1,N/A,,Clear,170,2012-10-12 16:33:00
11:54 AM,43.7,20.5,40,30.38,10.0,SSE,8.1,-,N/A,,Clear,150,2012-10-12 16:54:00
12:13 PM,44.6,20.8,39,30.37,10.0,ESE,6.9,-,N/A,,Clear,120,2012-10-12 17:13:00
12:33 PM,45.7,20.8,37,30.36,10.0,SSE,9.2,-,N/A,,Clear,160,2012-10-12 17:33:00
12:53 PM,46.0,20.1,36,30.35,10.0,ESE,11.5,16.1,N/A,,Clear,120,2012-10-12 17:53:00
1:33 PM,47.8,18.7,31,30.32,10.0,ESE,10.4,-,N/A,,Clear,120,2012-10-12 18:33:00
1:53 PM,48.2,18.3,31,30.31,10.0,South,10.4,-,N/A,,Clear,170,2012-10-12 18:53:00
2:13 PM,49.1,18.0,29,30.30,10.0,South,5.8,16.1,N/A,,Clear,170,2012-10-12 19:13:00
2:33 PM,49.8,17.6,28,30.29,10.0,South,9.2,-,N/A,,Clear,190,2012-10-12 19:33:00
2:53 PM,50.2,16.5,26,30.28,10.0,SSE,9.2,-,N/A,,Clear,160,2012-10-12 19:53:00
3:13 PM,50.7,16.3,26,30.27,10.0,SSE,11.5,17.3,N/A,,Clear,150,2012-10-12 20:13:00
3:33 PM,51.1,16.7,26,30.26,10.0,SSE,10.4,18.4,N/A,,Clear,150,2012-10-12 20:33:00
3:54 PM,51.4,16.0,25,30.25,10.0,SSE,10.4,16.1,N/A,,Clear,160,2012-10-12 20:54:00
4:13 PM,51.4,15.1,24,30.24,10.0,SSE,9.2,17.3,N/A,,Clear,160,2012-10-12 21:13:00
4:33 PM,51.6,15.1,23,30.23,10.0,SE,15.0,19.6,N/A,,Clear,140,2012-10-12 21:33:00
5:13 PM,51.8,16.0,24,30.20,10.0,SSE,6.9,-,N/A,,Clear,160,2012-10-12 22:13:00
5:54 PM,50.4,16.3,26,30.18,10.0,SSE,11.5,16.1,N/A,,Clear,150,2012-10-12 22:54:00
6:13 PM,49.6,16.5,27,30.17,10.0,SE,6.9,-,N/A,,Clear,140,2012-10-12 23:13:00
6:33 PM,48.6,17.2,29,30.16,10.0,SE,9.2,-,N/A,,Clear,140,2012-10-12 23:33:00
6:54 PM,47.3,17.4,30,30.14,10.0,SE,4.6,-,N/A,,Clear,130,2012-10-12 23:54:00
7:13 PM,46.4,17.8,32,30.13,10.0,SE,4.6,-,N/A,,Clear,130,2012-10-13 00:13:00
7:33 PM,46.4,18.0,32,30.11,10.0,East,6.9,-,N/A,,Clear,100,2012-10-13 00:33:00
7:54 PM,46.6,18.7,33,30.11,10.0,SSE,3.5,-,N/A,,Mostly Cloudy,150,2012-10-13 00:54:00
8:13 PM,47.7,19.4,33,30.11,10.0,SE,6.9,-,N/A,,Overcast,140,2012-10-13 01:13:00
8:33 PM,47.8,19.2,32,30.09,10.0,SE,5.8,-,N/A,,Overcast,130,2012-10-13 01:33:00
8:54 PM,48.2,19.4,32,30.08,10.0,SE,6.9,-,N/A,,Overcast,140,2012-10-13 01:54:00
9:13 PM,48.2,18.7,31,30.07,10.0,SE,8.1,-,N/A,,Mostly Cloudy,130,2012-10-13 02:13:00
9:33 PM,48.4,18.5,31,30.06,10.0,SE,9.2,-,N/A,,Mostly Cloudy,140,2012-10-13 02:33:00
9:54 PM,49.1,18.3,30,30.06,10.0,SE,10.4,18.4,N/A,,Overcast,140,2012-10-13 02:54:00
10:13 PM,49.1,18.5,30,30.06,10.0,SSE,10.4,23.0,N/A,,Overcast,150,2012-10-13 03:13:00
10:33 PM,48.7,18.5,30,30.04,10.0,SSE,10.4,18.4,N/A,,Overcast,150,2012-10-13 03:33:00
10:54 PM,48.4,19.0,31,30.03,10.0,SE,11.5,18.4,N/A,,Overcast,140,2012-10-13 03:54:00
11:33 PM,49.1,19.8,31,30.02,10.0,SSE,9.2,19.6,N/A,,Overcast,150,2012-10-13 04:33:00
11:53 PM,49.5,21.6,33,30.01,10.0,SSE,10.4,20.7,N/A,,Overcast,150,2012-10-13 04:53:00